TimeMST,TemperatureF,Dew PointF,Humidity,Sea Level PressureIn,VisibilityMPH,Wind Direction,Wind SpeedMPH,Gust SpeedMPH,PrecipitationIn,Events,Conditions,WindDirDegrees,DateUTC
12:53 AM,32.0,12.0,44,29.68,10.0,SW,39.1,54.1,N/A,,Overcast,230,2014-01-10 07:53:00
1:53 AM,32.0,14.0,48,29.65,10.0,SW,25.3,44.9,N/A,,Overcast,230,2014-01-10 08:53:00
2:53 AM,32.0,15.1,50,29.62,10.0,SW,36.8,57.5,N/A,,Mostly Cloudy,230,2014-01-10 09:53:00
3:53 AM,32.0,15.1,50,29.64,10.0,SW,41.4,49.5,N/A,,Overcast,220,2014-01-10 10:53:00
4:39 AM,30.0,21.0,69,29.58,2.5,SW,34.5,54.1,0.00,Snow,Light Snow,230,2014-01-10 11:39:00
4:49 AM,28.4,21.2,74,29.59,4.0,SW,31.1,47.2,0.00,Snow,Light Snow,230,2014-01-10 11:49:00
4:53 AM,28.9,21.0,72,29.65,4.0,SW,33.4,40.3,0.00,Snow,Light Snow,230,2014-01-10 11:53:00
5:03 AM,28.9,21.9,75,29.59,1.8,SW,33.4,43.7,0.00,Snow,Light Snow,230,2014-01-10 12:03:00
5:30 AM,28.9,21.9,75,29.59,2.5,SW,31.1,42.6,0.00,Snow,Light Snow,220,2014-01-10 12:30:00
5:53 AM,28.9,21.9,75,29.66,2.5,SW,32.2,41.4,0.00,Snow,Light Snow,220,2014-01-10 12:53:00
5:56 AM,28.9,21.9,75,29.59,3.0,SW,25.3,41.4,0.00,Snow,Light Snow,220,2014-01-10 12:56:00
6:53 AM,30.9,19.9,64,29.67,6.0,SW,28.8,40.3,0.00,Snow,Light Snow,220,2014-01-10 13:53:00
7:53 AM,33.1,19.0,56,29.67,10.0,SW,26.5,33.4,0.00,,Overcast,230,2014-01-10 14:53:00
8:53 AM,34.0,19.9,56,29.69,10.0,WSW,19.6,-,N/A,,Overcast,250,2014-01-10 15:53:00
9:53 AM,37.0,19.9,50,29.72,10.0,West,20.7,-,N/A,,Overcast,260,2014-01-10 16:53:00
10:53 AM,39.0,19.9,46,29.73,10.0,West,12.7,24.2,N/A,,Mostly Cloudy,260,2014-01-10 17:53:00
11:53 AM,41.0,19.9,43,29.70,10.0,WNW,15.0,19.6,N/A,,Overcast,290,2014-01-10 18:53:00
12:53 PM,41.0,19.9,43,29.65,10.0,WSW,29.9,39.1,N/A,,Partly Cloudy,250,2014-01-10 19:53:00
1:53 PM,41.0,18.0,40,29.66,10.0,West,35.7,43.7,N/A,,Clear,260,2014-01-10 20:53:00
2:53 PM,41.0,17.1,38,29.69,10.0,WSW,29.9,40.3,N/A,,Clear,250,2014-01-10 21:53:00
3:53 PM,39.9,18.0,41,29.73,10.0,WSW,24.2,38.0,N/A,,Clear,250,2014-01-10 22:53:00
4:53 PM,39.0,18.0,43,29.78,10.0,West,20.7,28.8,N/A,,Mostly Cloudy,260,2014-01-10 23:53:00
5:53 PM,37.9,17.1,43,29.80,10.0,West,25.3,32.2,N/A,,Clear,260,2014-01-11 00:53:00
6:53 PM,37.9,17.1,43,29.79,10.0,West,26.5,32.2,N/A,,Partly Cloudy,260,2014-01-11 01:53:00
7:53 PM,37.9,19.0,47,29.84,10.0,West,18.4,-,N/A,,Mostly Cloudy,280,2014-01-11 02:53:00
8:53 PM,37.9,18.0,45,29.85,10.0,West,24.2,-,N/A,,Clear,270,2014-01-11 03:53:00
9:53 PM,41.0,17.1,38,29.84,10.0,West,29.9,38.0,N/A,,Overcast,260,2014-01-11 04:53:00
10:53 PM,39.9,17.1,40,29.86,10.0,West,20.7,-,N/A,,Mostly Cloudy,270,2014-01-11 05:53:00
11:53 PM,39.9,17.1,40,29.82,10.0,WSW,21.9,38.0,N/A,,Mostly Cloudy,240,2014-01-11 06:53:00